weather.gov     
National Weather Service

Terminal Aerodrome Forecast
NWS Homepage
This page is being discontinued on March 12, 2014.
The same data is available at this site. Please update your bookmarks.
Thank you, and we apologize for the inconvenience.
Please send an email to SR-SRH.Webmaster@noaa.gov with any concerns.


Current Version
Previous Version:    01  02  03  04  05  06  07  08  09  10  11  12  13  14  
[Printable]
640
FTUS41 KGYX 262320
TAFPWM
TAF
KPWM 262320Z 2700/2724 02012G22KT 1/4SM +SN FG OVC006
     FM270500 34018G28KT 1 1/2SM -SN BLSN BR OVC007
     FM271000 32010KT P6SM -SHSN BKN025 OVC040=




640
FTUS41 KGYX 262320
TAFPWM
TAF
KPWM 262320Z 2700/2724 02012G22KT 1/4SM +SN FG OVC006
     FM270500 34018G28KT 1 1/2SM -SN BLSN BR OVC007
     FM271000 32010KT P6SM -SHSN BKN025 OVC040=


U.S. Dept. of Commerce
NOAA National Weather Service
1325 East West Highway
Silver Spring, MD 20910
E-mail: w-nws.webmaster@noaa.gov
Page last modified: May 16, 2007
NATIONAL WEATHER SERVICE: for Safety, for Work, for Fun - FOR LIFE